Showing default

SALSAT, 46495

Orbit data source: Space-Track

SALSAT, 46495 is a payload satellite owned by TUB (DE) in SSO that was launched on Mon, 28 Sep 2020 UTC via a SOYUZ-2-1B launch vehicle from the Plesetsk Missile And Space Complex (PKMTR). Payload-class satellites include a variety of spacecraft equipped with specific instruments for various scientific and technological missions. These include communications satellites like Starlink; space stations such as the ISS; scientific satellites like the Hubble; Earth observation satellites from companies like Planet Labs, Umbra, and HawkEye 360; GPS; miniature CubeSats for education and research; and military/defense satellites.

Loading next visibility...
Identifier
46495, 2020-068K
Orbit
SSO
Country
Flag of DEDE / GER
Related business
Manufacturer
TUB
Mission
Operational Amateur Sigint
Bus & Motor
TUBIX10, Unknown motor
Mass
12 kg wet, 12 kg dry
Launch date (UTC)
2020-09-28 (5 years ago)
Launch vehicle
SOYUZ-2-1B
Launch site
Plesetsk Missile And Space Complex (PKMTR)
Object type
Payload
Rocket body
Debris
Shape & HBR
Box, Unknown HBR
Radar Cross Section
0.086 m², Medium (>0.1 m² and < 1m²)

Expand to show TLE details & history
Last TLE update: 6 hours ago

TLE from 6 hours ago
0 SALSAT
1 46495U 20068K   25260.26083134  .00006744  00000-0  28005-3 0  9995
2 46495  97.8708 243.0431 0011455 165.2658 194.8914 15.24135376273707
Epoch: 2025-09-17T06:15Z
TLE epoch observation values (Epoch: 2025-09-17T06:15:35.827Z)
Latitude
-0.00005°
Longitude
152.7045°
Altitude
504.074 km
Speed
7.608 km/s
True Right ascension
16h 12m 10s
True Declination
0° 00' 00"
Sunlit
Object was in daylight at epoch
Visualization orbit readout
Latitude
Unknown
Longitude
Unknown
Altitude
Unknown
Speed
Unknown
Apparent Right ascension
Unknown
Apparent Declination
Unknown
Sunlit
N/A
Visualization observer readout
Local Sidereal Time
04:48:13
Azimuth
Unknown
Elevation
Unknown
Doppler factor
Unknown
Orbital elements
Apogee altitude
498.232 km
Perigee altitude
482.496 km
Semi-major axis
6,868.501 km
Eccentricity
0.00115
Inclination
97.8708°
RAAN
243.0431°
Arg. of periapsis
165.2658°
True anomaly
194.85771°
Mean anomaly
194.8914°
Eccentric anomaly
194.87455°
Mean motion
3.81285 °/min
Orbital period
94.42 mins
BSTAR
0.00028005
Loading maneuver chart data...
Computing Atmospheric mass density...
Loading historical data...
Loading historical data...
Loading historical data...
Loading historical data...
Loading historical data...
Loading historical data...
Loading historical data...

Documentation

Showing up to 5 results
|